Time,TemperatureF,DewpointF,PressureIn,WindDirection,WindDirectionDegrees,WindSpeedMPH,WindSpeedGustMPH,Humidity,HourlyPrecipIn,Conditions,Clouds,dailyrainin,SoftwareType,DateUTC
2013-01-27 00:01:00,45.0,44.0,30.13,SSE,148,1.0,9.0,98,0.00,,,0.01,,2013-01-27 06:01:00,
2013-01-27 00:11:00,45.0,44.0,30.13,SSE,148,1.0,9.0,98,0.00,,,0.01,,2013-01-27 06:11:00,
2013-01-27 00:21:00,45.0,44.0,30.13,SE,142,2.0,6.0,98,0.00,,,0.01,,2013-01-27 06:21:00,
2013-01-27 00:32:00,45.0,44.0,30.13,SE,142,1.0,7.0,98,0.00,,,0.01,,2013-01-27 06:32:00,
2013-01-27 00:42:00,45.0,44.0,30.13,SE,142,1.0,7.0,98,0.00,,,0.01,,2013-01-27 06:42:00,
2013-01-27 00:52:00,45.0,44.0,30.12,SW,214,2.0,6.0,98,0.00,,,0.01,,2013-01-27 06:52:00,
2013-01-27 01:01:00,45.0,44.0,30.12,SSE,164,3.0,8.0,98,0.00,,,0.01,,2013-01-27 07:01:00,
2013-01-27 01:13:00,45.0,44.0,30.12,SSE,164,3.0,8.0,98,0.00,,,0.01,,2013-01-27 07:13:00,
2013-01-27 01:21:00,45.0,44.0,30.13,West,259,0.0,6.0,98,0.00,,,0.01,,2013-01-27 07:21:00,
2013-01-27 01:31:00,45.0,44.0,30.13,NNE,30,3.0,7.0,98,0.00,,,0.01,,2013-01-27 07:31:00,
2013-01-27 01:41:00,45.0,44.0,30.13,NNE,30,3.0,7.0,98,0.00,,,0.01,,2013-01-27 07:41:00,
2013-01-27 01:52:00,45.0,44.0,30.14,SW,236,1.0,7.0,98,0.00,,,0.01,,2013-01-27 07:52:00,
2013-01-27 02:01:00,45.0,44.0,30.14,SE,146,1.0,5.0,98,0.00,,,0.01,,2013-01-27 08:01:00,
2013-01-27 02:11:00,45.0,44.0,30.14,SE,146,1.0,5.0,98,0.00,,,0.01,,2013-01-27 08:11:00,
2013-01-27 02:22:00,45.0,44.0,30.13,SSW,205,1.0,6.0,98,0.00,,,0.01,,2013-01-27 08:22:00,
2013-01-27 02:31:00,45.0,44.0,30.12,SSW,200,3.0,7.0,98,0.00,,,0.01,,2013-01-27 08:31:00,
2013-01-27 02:42:00,45.0,44.0,30.12,SSW,200,3.0,7.0,98,0.00,,,0.01,,2013-01-27 08:42:00,
2013-01-27 02:52:00,45.0,44.0,30.12,ENE,68,1.0,6.0,98,0.00,,,0.01,,2013-01-27 08:52:00,
2013-01-27 03:02:00,45.0,44.0,30.12,ESE,123,2.0,8.0,98,0.00,,,0.01,,2013-01-27 09:02:00,
2013-01-27 03:11:00,45.0,44.0,30.12,ESE,123,2.0,8.0,98,0.00,,,0.01,,2013-01-27 09:11:00,
2013-01-27 03:21:00,45.0,44.0,30.12,ESE,117,2.0,7.0,98,0.00,,,0.01,,2013-01-27 09:21:00,
2013-01-27 03:32:00,45.0,44.0,30.11,WSW,247,1.0,8.0,98,0.00,,,0.01,,2013-01-27 09:32:00,
2013-01-27 03:41:00,45.0,44.0,30.11,WSW,247,1.0,8.0,98,0.00,,,0.01,,2013-01-27 09:41:00,
2013-01-27 03:52:00,45.0,44.0,30.11,SW,215,1.0,6.0,98,0.00,,,0.01,,2013-01-27 09:52:00,
2013-01-27 04:01:00,45.0,45.0,30.10,South,175,1.0,6.0,99,0.00,,,0.01,,2013-01-27 10:01:00,
2013-01-27 04:11:00,45.0,45.0,30.10,SW,233,2.0,6.0,99,0.00,,,0.01,,2013-01-27 10:11:00,
2013-01-27 04:21:00,45.0,45.0,30.10,SW,233,2.0,6.0,99,0.00,,,0.01,,2013-01-27 10:21:00,
2013-01-27 04:31:00,45.0,45.0,30.10,SE,134,0.0,6.0,99,0.00,,,0.01,,2013-01-27 10:31:00,
2013-01-27 04:42:00,45.0,45.0,30.10,SE,134,0.0,6.0,99,0.00,,,0.01,,2013-01-27 10:42:00,
2013-01-27 04:52:00,46.0,46.0,30.09,SW,226,3.0,10.0,99,0.00,,,0.01,,2013-01-27 10:52:00,
2013-01-27 05:01:00,46.0,46.0,30.09,SE,145,2.0,6.0,99,0.00,,,0.01,,2013-01-27 11:01:00,
2013-01-27 05:11:00,46.0,46.0,30.09,SE,145,2.0,6.0,99,0.00,,,0.01,,2013-01-27 11:11:00,
2013-01-27 05:21:00,46.0,46.0,30.08,SE,128,2.0,7.0,99,0.00,,,0.01,,2013-01-27 11:21:00,
2013-01-27 05:32:00,46.0,46.0,30.07,ESE,120,2.0,8.0,99,0.00,,,0.01,,2013-01-27 11:32:00,
2013-01-27 05:42:00,46.0,46.0,30.07,ESE,120,2.0,8.0,99,0.00,,,0.01,,2013-01-27 11:42:00,
2013-01-27 05:52:00,46.0,46.0,30.07,SW,229,2.0,7.0,99,0.00,,,0.01,,2013-01-27 11:52:00,
2013-01-27 06:02:00,46.0,46.0,30.08,SE,146,1.0,3.0,99,0.00,,,0.01,,2013-01-27 12:02:00,
2013-01-27 06:11:00,46.0,46.0,30.08,SE,146,1.0,3.0,99,0.00,,,0.01,,2013-01-27 12:11:00,
2013-01-27 06:21:00,47.0,47.0,30.07,SSE,155,1.0,4.0,99,0.00,,,0.01,,2013-01-27 12:21:00,
2013-01-27 06:32:00,47.0,47.0,30.09,SSW,193,1.0,6.0,99,0.00,,,0.01,,2013-01-27 12:32:00,
2013-01-27 06:42:00,47.0,47.0,30.09,SSW,193,1.0,6.0,99,0.00,,,0.01,,2013-01-27 12:42:00,
2013-01-27 06:52:00,47.0,47.0,30.10,SW,221,0.0,2.0,99,0.00,,,0.01,,2013-01-27 12:52:00,
2013-01-27 07:02:00,48.0,48.0,30.11,SSW,203,0.0,2.0,99,0.00,,,0.01,,2013-01-27 13:02:00,
2013-01-27 07:11:00,48.0,48.0,30.11,SSW,203,0.0,2.0,99,0.00,,,0.01,,2013-01-27 13:11:00,
2013-01-27 07:22:00,48.0,48.0,30.10,South,186,1.0,5.0,99,0.00,,,0.01,,2013-01-27 13:22:00,
2013-01-27 07:32:00,49.0,49.0,30.09,SSE,159,0.0,2.0,99,0.00,,,0.01,,2013-01-27 13:32:00,
2013-01-27 07:42:00,49.0,49.0,30.09,SSE,159,0.0,2.0,99,0.00,,,0.01,,2013-01-27 13:42:00,
2013-01-27 07:52:00,49.0,49.0,30.10,SW,215,1.0,2.0,99,0.00,,,0.01,,2013-01-27 13:52:00,
2013-01-27 08:02:00,50.0,50.0,30.09,SSW,212,0.0,3.0,99,0.01,,,0.02,,2013-01-27 14:02:00,
2013-01-27 08:11:00,50.0,50.0,30.09,SSW,212,0.0,3.0,99,0.01,,,0.02,,2013-01-27 14:11:00,
2013-01-27 08:22:00,50.0,50.0,30.09,SE,145,1.0,4.0,99,0.01,,,0.01,,2013-01-27 14:22:00,
2013-01-27 08:32:00,50.0,50.0,30.09,South,170,1.0,4.0,99,0.01,,,0.01,,2013-01-27 14:32:00,
2013-01-27 08:42:00,50.0,50.0,30.09,South,170,1.0,4.0,99,0.01,,,0.01,,2013-01-27 14:42:00,
2013-01-27 08:53:00,50.0,50.0,30.08,East,91,1.0,7.0,99,0.01,,,0.01,,2013-01-27 14:53:00,
2013-01-27 09:02:00,51.0,51.0,30.08,SSW,211,2.0,7.0,99,0.00,,,0.01,,2013-01-27 15:02:00,
2013-01-27 09:12:00,51.0,51.0,30.08,SSW,211,2.0,7.0,99,0.00,,,0.01,,2013-01-27 15:12:00,
2013-01-27 09:22:00,51.0,51.0,30.08,SSW,197,2.0,5.0,99,0.00,,,0.01,,2013-01-27 15:22:00,
2013-01-27 09:32:00,52.0,52.0,30.07,SSW,212,2.0,6.0,99,0.00,,,0.01,,2013-01-27 15:32:00,
2013-01-27 09:42:00,52.0,52.0,30.07,SSW,212,2.0,6.0,99,0.00,,,0.01,,2013-01-27 15:42:00,
2013-01-27 09:53:00,52.0,52.0,30.06,SSW,195,2.0,10.0,99,0.00,,,0.01,,2013-01-27 15:53:00,
2013-01-27 10:02:00,53.0,53.0,30.06,East,90,3.0,10.0,99,0.00,,,0.01,,2013-01-27 16:02:00,
2013-01-27 10:12:00,53.0,53.0,30.06,East,90,3.0,10.0,99,0.00,,,0.01,,2013-01-27 16:12:00,
2013-01-27 10:21:00,54.0,54.0,30.08,WSW,238,2.0,5.0,99,0.00,,,0.01,,2013-01-27 16:21:00,
2013-01-27 10:32:00,55.0,55.0,30.06,South,185,4.0,11.0,99,0.00,,,0.01,,2013-01-27 16:32:00,
2013-01-27 10:42:00,55.0,55.0,30.06,South,185,4.0,11.0,99,0.00,,,0.01,,2013-01-27 16:42:00,
2013-01-27 10:53:00,55.0,55.0,30.06,SE,126,3.0,8.0,100,0.00,,,0.01,,2013-01-27 16:53:00,
2013-01-27 11:01:00,56.0,56.0,30.07,SE,133,3.0,9.0,100,0.00,,,0.01,,2013-01-27 17:01:00,
2013-01-27 11:12:00,56.0,56.0,30.07,SE,133,3.0,9.0,100,0.00,,,0.01,,2013-01-27 17:12:00,
2013-01-27 11:22:00,56.0,56.0,30.07,SE,135,4.0,7.0,100,0.00,,,0.01,,2013-01-27 17:22:00,
2013-01-27 11:32:00,57.0,57.0,30.06,SE,146,2.0,8.0,100,0.00,,,0.01,,2013-01-27 17:32:00,
2013-01-27 11:42:00,57.0,57.0,30.06,SE,146,2.0,8.0,100,0.00,,,0.01,,2013-01-27 17:42:00,
2013-01-27 11:52:00,57.0,57.0,30.05,SW,228,2.0,10.0,100,0.00,,,0.01,,2013-01-27 17:52:00,
2013-01-27 12:02:00,58.0,58.0,30.04,SSW,208,3.0,8.0,99,0.00,,,0.01,,2013-01-27 18:02:00,
2013-01-27 12:11:00,58.0,58.0,30.04,SSW,208,3.0,8.0,99,0.00,,,0.01,,2013-01-27 18:11:00,
2013-01-27 12:22:00,59.0,59.0,30.02,SW,228,2.0,8.0,99,0.00,,,0.01,,2013-01-27 18:22:00,
2013-01-27 12:32:00,59.0,59.0,30.02,SW,228,2.0,8.0,99,0.00,,,0.01,,2013-01-27 18:32:00,
2013-01-27 12:42:00,59.0,59.0,30.02,SW,228,2.0,8.0,99,0.00,,,0.01,,2013-01-27 18:42:00,
2013-01-27 12:52:00,60.0,60.0,30.00,SSW,193,5.0,18.0,99,0.00,,,0.01,,2013-01-27 18:52:00,
2013-01-27 13:02:00,60.0,59.0,29.99,SSW,195,4.0,9.0,98,0.00,,,0.01,,2013-01-27 19:02:00,
2013-01-27 13:12:00,60.0,59.0,29.99,SSW,195,4.0,9.0,98,0.00,,,0.01,,2013-01-27 19:12:00,
2013-01-27 13:22:00,61.0,60.0,29.98,SW,215,4.0,10.0,95,0.00,,,0.01,,2013-01-27 19:22:00,
2013-01-27 13:32:00,62.0,60.0,29.98,SSW,204,3.0,9.0,93,0.00,,,0.01,,2013-01-27 19:32:00,
2013-01-27 13:42:00,62.0,60.0,29.98,SSW,204,3.0,9.0,93,0.00,,,0.01,,2013-01-27 19:42:00,
2013-01-27 13:52:00,64.0,61.0,29.96,SW,229,3.0,7.0,91,0.00,,,0.01,,2013-01-27 19:52:00,
2013-01-27 14:02:00,65.0,61.0,29.96,SE,125,4.0,10.0,86,0.00,,,0.01,,2013-01-27 20:02:00,
2013-01-27 14:11:00,65.0,61.0,29.96,SE,125,4.0,10.0,86,0.00,,,0.01,,2013-01-27 20:11:00,
2013-01-27 14:22:00,65.0,61.0,29.96,SE,125,4.0,10.0,86,0.00,,,0.01,,2013-01-27 20:22:00,
2013-01-27 14:32:00,67.0,61.0,29.95,SSW,211,5.0,14.0,80,0.00,,,0.01,,2013-01-27 20:32:00,
2013-01-27 14:42:00,67.0,61.0,29.95,SSW,211,5.0,14.0,80,0.00,,,0.01,,2013-01-27 20:42:00,
2013-01-27 14:52:00,66.0,59.0,29.94,SSW,210,6.0,12.0,79,0.00,,,0.01,,2013-01-27 20:52:00,
2013-01-27 15:02:00,67.0,60.0,29.93,South,187,6.0,14.0,78,0.00,,,0.01,,2013-01-27 21:02:00,
2013-01-27 15:12:00,67.0,60.0,29.93,South,187,6.0,14.0,78,0.00,,,0.01,,2013-01-27 21:12:00,
2013-01-27 15:22:00,68.0,60.0,29.93,SW,215,6.0,16.0,76,0.00,,,0.01,,2013-01-27 21:22:00,
2013-01-27 15:33:00,68.0,60.0,29.93,WSW,244,6.0,15.0,76,0.00,,,0.01,,2013-01-27 21:33:00,
2013-01-27 15:42:00,68.0,60.0,29.93,WSW,244,6.0,15.0,76,0.00,,,0.01,,2013-01-27 21:42:00,
2013-01-27 15:52:00,68.0,60.0,29.93,SSW,203,6.0,15.0,76,0.00,,,0.01,,2013-01-27 21:52:00,
2013-01-27 16:02:00,68.0,60.0,29.92,SSE,163,7.0,15.0,75,0.00,,,0.01,,2013-01-27 22:02:00,
2013-01-27 16:11:00,68.0,60.0,29.92,SSE,163,7.0,15.0,75,0.00,,,0.01,,2013-01-27 22:11:00,
2013-01-27 16:22:00,68.0,60.0,29.93,SSW,197,7.0,16.0,75,0.00,,,0.01,,2013-01-27 22:22:00,
2013-01-27 16:32:00,69.0,61.0,29.93,SW,217,4.0,16.0,75,0.00,,,0.01,,2013-01-27 22:32:00,
2013-01-27 16:42:00,69.0,61.0,29.93,SW,217,4.0,16.0,75,0.00,,,0.01,,2013-01-27 22:42:00,
2013-01-27 16:52:00,69.0,60.0,29.92,SSW,210,3.0,14.0,73,0.00,,,0.01,,2013-01-27 22:52:00,
2013-01-27 17:02:00,69.0,60.0,29.91,SW,214,2.0,13.0,72,0.00,,,0.01,,2013-01-27 23:02:00,
2013-01-27 17:12:00,69.0,60.0,29.91,SW,214,2.0,13.0,72,0.00,,,0.01,,2013-01-27 23:12:00,
2013-01-27 17:21:00,69.0,60.0,29.92,SW,215,2.0,11.0,72,0.00,,,0.01,,2013-01-27 23:21:00,
2013-01-27 17:32:00,69.0,60.0,29.91,SW,229,2.0,11.0,72,0.00,,,0.01,,2013-01-27 23:32:00,
2013-01-27 17:41:00,69.0,60.0,29.91,SW,229,2.0,11.0,72,0.00,,,0.01,,2013-01-27 23:41:00,
2013-01-27 17:53:00,69.0,60.0,29.92,SE,136,2.0,9.0,72,0.00,,,0.01,,2013-01-27 23:53:00,
2013-01-27 18:02:00,69.0,60.0,29.91,South,174,2.0,7.0,73,0.00,,,0.01,,2013-01-28 00:02:00,
2013-01-27 18:11:00,69.0,60.0,29.91,South,174,2.0,7.0,73,0.00,,,0.01,,2013-01-28 00:11:00,
2013-01-27 18:21:00,68.0,59.0,29.92,SSE,156,2.0,8.0,74,0.00,,,0.01,,2013-01-28 00:21:00,
2013-01-27 18:32:00,68.0,59.0,29.92,South,189,2.0,8.0,74,0.00,,,0.01,,2013-01-28 00:32:00,
2013-01-27 18:42:00,68.0,59.0,29.92,South,189,2.0,8.0,74,0.00,,,0.01,,2013-01-28 00:42:00,
2013-01-27 18:52:00,67.0,59.0,29.92,SSE,165,1.0,5.0,75,0.00,,,0.01,,2013-01-28 00:52:00,
2013-01-27 19:01:00,66.0,59.0,29.92,SE,142,0.0,3.0,77,0.00,,,0.01,,2013-01-28 01:01:00,
2013-01-27 19:11:00,66.0,59.0,29.92,SE,142,0.0,3.0,77,0.00,,,0.01,,2013-01-28 01:11:00,
2013-01-27 19:22:00,64.0,58.0,29.92,SE,136,0.0,3.0,80,0.00,,,0.01,,2013-01-28 01:22:00,
2013-01-27 19:32:00,63.0,57.0,29.93,SE,132,0.0,3.0,82,0.00,,,0.01,,2013-01-28 01:32:00,
2013-01-27 19:42:00,63.0,57.0,29.93,SE,132,0.0,3.0,82,0.00,,,0.01,,2013-01-28 01:42:00,
2013-01-27 19:52:00,62.0,57.0,29.93,ESE,117,0.0,1.0,83,0.00,,,0.01,,2013-01-28 01:52:00,
2013-01-27 20:02:00,62.0,57.0,29.93,SSE,158,0.0,3.0,85,0.00,,,0.01,,2013-01-28 02:02:00,
2013-01-27 20:11:00,62.0,57.0,29.93,SSE,158,0.0,3.0,85,0.00,,,0.01,,2013-01-28 02:11:00,
2013-01-27 20:22:00,62.0,58.0,29.93,SSE,150,1.0,3.0,86,0.00,,,0.01,,2013-01-28 02:22:00,
2013-01-27 20:32:00,62.0,58.0,29.93,SSE,166,1.0,4.0,86,0.00,,,0.01,,2013-01-28 02:32:00,
2013-01-27 20:42:00,62.0,58.0,29.93,SSE,166,1.0,4.0,86,0.00,,,0.01,,2013-01-28 02:42:00,
2013-01-27 20:52:00,62.0,58.0,29.93,SE,146,1.0,5.0,86,0.00,,,0.01,,2013-01-28 02:52:00,
2013-01-27 21:02:00,62.0,57.0,29.93,SSE,165,0.0,5.0,85,0.00,,,0.01,,2013-01-28 03:02:00,
2013-01-27 21:11:00,62.0,57.0,29.93,SSE,165,0.0,5.0,85,0.00,,,0.01,,2013-01-28 03:11:00,
2013-01-27 21:21:00,62.0,57.0,29.93,SSE,153,0.0,5.0,85,0.00,,,0.01,,2013-01-28 03:21:00,
2013-01-27 21:32:00,61.0,56.0,29.93,SSE,150,0.0,3.0,85,0.00,,,0.01,,2013-01-28 03:32:00,
2013-01-27 21:42:00,61.0,56.0,29.93,SSE,150,0.0,3.0,85,0.00,,,0.01,,2013-01-28 03:42:00,
2013-01-27 21:53:00,61.0,57.0,29.93,SSE,148,1.0,4.0,86,0.00,,,0.01,,2013-01-28 03:53:00,
2013-01-27 22:02:00,61.0,57.0,29.93,South,169,0.0,4.0,86,0.00,,,0.01,,2013-01-28 04:02:00,
2013-01-27 22:11:00,61.0,57.0,29.93,South,169,0.0,4.0,86,0.00,,,0.01,,2013-01-28 04:11:00,
2013-01-27 22:22:00,61.0,57.0,29.93,South,169,0.0,4.0,86,0.00,,,0.01,,2013-01-28 04:22:00,
2013-01-27 22:32:00,61.0,57.0,29.93,SSE,167,1.0,4.0,87,0.00,,,0.01,,2013-01-28 04:32:00,
2013-01-27 22:42:00,61.0,57.0,29.93,SSE,167,1.0,4.0,87,0.00,,,0.01,,2013-01-28 04:42:00,
2013-01-27 22:52:00,61.0,57.0,29.93,SSW,200,0.0,3.0,87,0.00,,,0.01,,2013-01-28 04:52:00,
2013-01-27 23:04:00,62.0,58.0,29.93,SE,129,1.0,6.0,88,0.00,,,0.01,,2013-01-28 05:04:00,
2013-01-27 23:11:00,62.0,58.0,29.93,SE,129,1.0,6.0,88,0.00,,,0.01,,2013-01-28 05:11:00,
2013-01-27 23:21:00,64.0,60.0,29.93,SSW,212,2.0,6.0,87,0.00,,,0.01,,2013-01-28 05:21:00,
2013-01-27 23:31:00,65.0,60.0,29.93,South,176,1.0,7.0,84,0.00,,,0.01,,2013-01-28 05:31:00,
2013-01-27 23:41:00,65.0,60.0,29.93,South,176,1.0,7.0,84,0.00,,,0.01,,2013-01-28 05:41:00,
2013-01-27 23:52:00,65.0,60.0,29.94,South,169,4.0,8.0,84,0.00,,,0.01,,2013-01-28 05:52:00,